Weather History for Clinton, OK

Change the Weather History Date:

Monday, March 17, 2014

  Actual Average (KCSM) Record (KCSM)
Temperature  
Mean Temperature 43 °F -  
Max Temperature 60 °F 58 °F 90 °F (2011)
Min Temperature 26 °F 37 °F 27 °F (2014)
Degree Days  
Heating Degree Days 22    
Moisture  
Dew Point 23 °F    
Average Humidity 52    
Maximum Humidity 86    
Minimum Humidity 22    
Precipitation  
Precipitation 0.00 in - - ()
Sea Level Pressure  
Sea Level Pressure 29.83 in    
Wind  
Wind Speed 6 mph (South)    
Max Wind Speed 24 mph    
Max Gust Speed 31 mph    
Visibility 10 miles    
Events      
Averages and records for this station are not official NWS values.
T = Trace of Precipitation, MM = Missing Value Source: NWS Daily Summary

Daily Weather History Graph

Daily Weather History Graph

Search for Another Location

Airport:

Trip Planner

Search our weather history database for the weather conditions in past years. The results will help you decide how hot, cold, wet, or windy it might be!

Date:

Astronomy

Mar. 17, 2014 Rise Set
Actual Time 7:43 AM CDT 7:45 PM CDT
Civil Twilight 7:18 AM CDT 8:10 PM CDT
Nautical Twilight 6:48 AM CDT 8:40 PM CDT
Astronomical Twilight 6:18 AM CDT 9:10 PM CDT
Moon 8:59 PM CDT (3/17) 8:02 AM CDT (3/17)
Length of Visible Light 12h 52m
Length of Day
12h 01m
Full, 99% of the Moon is Illuminated
Mar 17
Full
Mar 23
Last Quarter
Mar 30
New
Apr 7
First Quarter
Apr 15
Full

Hourly Weather History & Observations

Time (CDT) Temp. Windchill Dew Point Humidity Pressure Visibility Wind Dir Wind Speed Gust Speed Precip Events Conditions
12:15 AM 32.0 °F - 21.2 °F 64% 30.13 in 10.0 mi Calm Calm - N/A   Clear
12:35 AM 32.0 °F - 21.2 °F 64% 30.13 in 10.0 mi Calm Calm - N/A   Clear
12:55 AM 30.2 °F - 21.2 °F 69% 30.11 in 10.0 mi Calm Calm - N/A   Clear
1:15 AM 30.2 °F - 21.2 °F 69% 30.12 in 10.0 mi Calm Calm - N/A   Clear
1:35 AM 30.2 °F - 21.2 °F 69% 30.11 in 10.0 mi Calm Calm - N/A   Clear
1:55 AM 30.2 °F - 21.2 °F 69% 30.10 in 10.0 mi Calm Calm - N/A   Clear
2:15 AM 30.2 °F - 21.2 °F 69% 30.10 in 10.0 mi Calm Calm - N/A   Clear
2:35 AM 28.4 °F - 21.2 °F 74% 30.09 in 10.0 mi Calm Calm - N/A   Clear
2:55 AM 26.6 °F - 21.2 °F 80% 30.09 in 10.0 mi Calm Calm - N/A   Clear
3:15 AM 26.6 °F - 21.2 °F 80% 30.08 in 10.0 mi Calm Calm - N/A   Clear
3:35 AM 28.4 °F - 21.2 °F 74% 30.07 in 10.0 mi Calm Calm - N/A   Clear
3:55 AM 28.4 °F - 21.2 °F 74% 30.05 in 10.0 mi Calm Calm - N/A   Clear
4:15 AM 26.6 °F 22.6 °F 21.2 °F 80% 30.04 in 10.0 mi West 3.5 mph - N/A   Clear
4:35 AM 26.6 °F 21.2 °F 21.2 °F 80% 30.03 in 10.0 mi West 4.6 mph - N/A   Clear
4:55 AM 26.6 °F - 21.2 °F 80% 30.02 in 10.0 mi Calm Calm - N/A   Clear
5:15 AM 26.6 °F - 21.2 °F 80% 30.02 in 10.0 mi Calm Calm - N/A   Clear
5:35 AM 26.6 °F - 21.2 °F 80% 30.01 in 10.0 mi Calm Calm - N/A   Clear
5:55 AM 26.6 °F - 21.2 °F 80% 30.01 in 10.0 mi Calm Calm - N/A   Clear
6:15 AM 26.6 °F - 21.2 °F 80% 30.00 in 10.0 mi Calm Calm - N/A   Clear
6:35 AM 26.6 °F - 21.2 °F 80% 29.99 in 10.0 mi Calm Calm - N/A   Clear
6:55 AM 26.6 °F - 21.2 °F 80% 29.97 in 10.0 mi Calm Calm - N/A   Clear
7:15 AM 26.6 °F - 21.2 °F 80% 29.97 in 10.0 mi Calm Calm - N/A   Clear
7:35 AM 26.6 °F - 21.2 °F 80% 29.96 in 10.0 mi Calm Calm - N/A   Clear
7:55 AM 26.6 °F - 21.2 °F 80% 29.96 in 10.0 mi Calm Calm - N/A   Clear
8:15 AM 26.6 °F - 21.2 °F 80% 29.96 in 10.0 mi Calm Calm - N/A   Clear
8:35 AM 26.6 °F 22.6 °F 23.0 °F 86% 29.96 in 10.0 mi South 3.5 mph - N/A   Clear
8:55 AM 28.4 °F - 23.0 °F 80% 29.96 in 10.0 mi Calm Calm - N/A   Clear
9:15 AM 30.2 °F 26.7 °F 23.0 °F 75% 29.96 in 10.0 mi SSW 3.5 mph - N/A   Clear
9:35 AM 32.0 °F - 26.6 °F 80% 29.96 in 10.0 mi Calm Calm - N/A   Clear
9:55 AM 33.8 °F 29.6 °F 26.6 °F 75% 29.95 in 10.0 mi South 4.6 mph - N/A   Clear
10:15 AM 37.4 °F 31.4 °F 26.6 °F 65% 29.94 in 10.0 mi South 8.1 mph - N/A   Clear
10:35 AM 42.8 °F 36.2 °F 24.8 °F 49% 29.93 in 10.0 mi South 12.7 mph - N/A   Clear
10:55 AM 44.6 °F 38.4 °F 23.0 °F 43% 29.92 in 10.0 mi SSW 12.7 mph - N/A   Clear
11:15 AM 46.4 °F 40.1 °F 21.2 °F 37% 29.91 in 10.0 mi SSW 15.0 mph - N/A   Clear
11:35 AM 48.2 °F - 21.2 °F 34% 29.90 in 10.0 mi SSW 12.7 mph - N/A   Clear
11:55 AM 50.0 °F - 21.2 °F 32% 29.87 in 10.0 mi SSW 15.0 mph - N/A   Clear
12:15 PM 50.0 °F - 23.0 °F 35% 29.86 in 10.0 mi SSW 11.5 mph 18.4 mph N/A   Clear
12:35 PM 51.8 °F - 23.0 °F 33% 29.84 in 10.0 mi South 15.0 mph 18.4 mph N/A   Clear
12:55 PM 53.6 °F - 23.0 °F 30% 29.82 in 10.0 mi South 15.0 mph - N/A   Clear
1:15 PM 53.6 °F - 23.0 °F 30% 29.81 in 10.0 mi SSW 13.8 mph 21.9 mph N/A   Clear
1:35 PM 55.4 °F - 23.0 °F 29% 29.80 in 10.0 mi South 13.8 mph - N/A   Clear
1:55 PM 57.2 °F - 23.0 °F 27% 29.78 in 10.0 mi South 17.3 mph - N/A   Clear
2:15 PM 59.0 °F - 23.0 °F 25% 29.76 in 10.0 mi South 17.3 mph 21.9 mph N/A   Clear
2:35 PM 59.0 °F - 23.0 °F 25% 29.74 in 10.0 mi South 17.3 mph - N/A   Clear
2:55 PM 60.8 °F - 23.0 °F 23% 29.73 in 10.0 mi SSW 18.4 mph - N/A   Clear
3:15 PM 60.8 °F - 23.0 °F 23% 29.72 in 10.0 mi South 18.4 mph - N/A   Clear
3:35 PM 60.8 °F - 23.0 °F 23% 29.69 in 10.0 mi South 18.4 mph 24.2 mph N/A   Clear
3:55 PM 60.8 °F - 23.0 °F 23% 29.68 in 10.0 mi South 17.3 mph 25.3 mph N/A   Clear
4:15 PM 60.8 °F - 23.0 °F 23% 29.68 in 10.0 mi South 20.7 mph 24.2 mph N/A   Clear
4:35 PM 59.0 °F - 21.2 °F 23% 29.67 in 10.0 mi South 19.6 mph 27.6 mph N/A   Clear
4:55 PM 60.8 °F - 23.0 °F 23% 29.66 in 10.0 mi South 19.6 mph 27.6 mph N/A   Clear
5:15 PM 60.8 °F - 21.2 °F 22% 29.64 in 10.0 mi South 23.0 mph 27.6 mph N/A   Clear
5:35 PM 60.8 °F - 23.0 °F 23% 29.62 in 10.0 mi South 23.0 mph 29.9 mph N/A   Clear
5:55 PM 59.0 °F - 23.0 °F 25% 29.62 in 10.0 mi South 24.2 mph 29.9 mph N/A   Clear
6:15 PM 57.2 °F - 23.0 °F 27% 29.61 in 10.0 mi South 20.7 mph 26.5 mph N/A   Clear
6:35 PM 59.0 °F - 24.8 °F 27% 29.61 in 10.0 mi South 23.0 mph 28.8 mph N/A   Clear
6:55 PM 57.2 °F - 24.8 °F 29% 29.60 in 10.0 mi SSE 19.6 mph 24.2 mph N/A   Clear
7:15 PM 55.4 °F - 24.8 °F 31% 29.59 in 10.0 mi South 18.4 mph - N/A   Clear
7:35 PM 55.4 °F - 23.0 °F 29% 29.58 in 10.0 mi SSE 17.3 mph 24.2 mph N/A   Clear
7:55 PM 53.6 °F - 26.6 °F 35% 29.58 in 10.0 mi SSE 16.1 mph - N/A   Clear
8:15 PM 51.8 °F - 28.4 °F 41% 29.57 in 10.0 mi SSE 18.4 mph - N/A   Clear
8:35 PM 51.8 °F - 28.4 °F 41% 29.56 in 10.0 mi SE 16.1 mph - N/A   Clear
8:55 PM 50.0 °F - 28.4 °F 43% 29.55 in 10.0 mi SE 17.3 mph 24.2 mph N/A   Scattered Clouds
9:15 PM 50.0 °F - 28.4 °F 43% 29.54 in 10.0 mi SE 19.6 mph 25.3 mph N/A   Scattered Clouds
9:35 PM 50.0 °F - 28.4 °F 43% 29.53 in 10.0 mi SSE 18.4 mph 26.5 mph N/A   Scattered Clouds
9:55 PM 50.0 °F - 26.6 °F 40% 29.51 in 10.0 mi SSE 23.0 mph 28.8 mph N/A   Clear
10:35 PM 48.2 °F - 28.4 °F 46% 29.50 in 10.0 mi SSE 21.9 mph 31.1 mph N/A   Clear
10:55 PM 46.4 °F 38.7 °F 28.4 °F 50% 29.50 in 10.0 mi SSE 20.7 mph 25.3 mph N/A   Clear
11:15 PM 46.4 °F 39.0 °F 28.4 °F 50% 29.49 in 10.0 mi SSE 19.6 mph - N/A   Clear
11:35 PM 46.4 °F 39.2 °F 28.4 °F 50% 29.48 in 10.0 mi SSE 18.4 mph - N/A   Clear
11:55 PM 46.4 °F 39.0 °F 28.4 °F 50% 29.48 in 10.0 mi SSE 19.6 mph - N/A   Clear